Regional Weather Roundup
Issued by NWS

Home | Current Version | Previous Version | Graphics & Text | Print | Product List | Glossary On
Versions: 1 2 3 4 5 6 7 8 9 10 11 12 13 14 15 16 17 18 19 20 21 22 23 24 25 26 27 28 29 30 31 32 33 34 35 36 37 38 39 40 41 42 43 44 45 46 47 48 49 50
000
ASUS43 KTOP 080559
RWRKS

WEATHER ROUNDUP FOR KANSAS
NATIONAL WEATHER SERVICE GOODLAND KS
1200 AM CST MON FEB 08 2016

NOTE:  "FAIR" INDICATES FEW OR NO CLOUDS BELOW 12,000 FEET WITH NO
SIGNIFICANT WEATHER AND/OR OBSTRUCTIONS TO VISIBILITY.

KSZ001>006-013>018-027>032-041>047-080700-
NORTHWEST KANSAS

CITY           SKY/WX    TMP DP  RH WIND       PRES   REMARKS
GOODLAND       PTCLDY    27  12  53 NW23G31   30.32S WCI  12
6HR MIN TEMP:  27; 6HR MAX TEMP:  33;

HAYS           CLEAR     34  12  40 W12       30.26R WCI  25
HILL CITY      CLEAR     30  18  60 NW16      30.28R WCI  19
6HR MIN TEMP:  30; 6HR MAX TEMP:  38;

RUSSELL        CLEAR     31  20  63 NW14      30.23R WCI  21
6HR MIN TEMP:  31; 6HR MAX TEMP:  39;

$$

KSZ061>065-074>080-084>089-080700-
SOUTHWEST KANSAS

CITY           SKY/WX    TMP DP  RH WIND       PRES   REMARKS
DODGE CITY     MOCLDY    33  14  45 NW22G30   30.32R WCI  21
6HR MIN TEMP:  33; 6HR MAX TEMP:  40;

ELKHART          N/A     30  12  47 W16         N/A  WCI  19
GARDEN CITY    CLOUDY    33  16  49 NW15      30.33F WCI  23
6HR MIN TEMP:  32; 6HR MAX TEMP:  39;

GREAT BEND     CLEAR     34  16  47 NW17      30.27R WCI  23
LIBERAL        MOCLDY    28  12  50 W12       30.38R WCI  18
$$

KSZ066>073-081>083-090>101-080700-
SOUTHEAST KANSAS

CITY           SKY/WX    TMP DP  RH WIND       PRES   REMARKS
CHANUTE        CLEAR     36  22  56 W14       30.10S WCI  27
6HR MIN TEMP:  36; 6HR MAX TEMP:  48;

COFFEYVILLE    CLEAR     40  21  46 W13       30.14S WCI  32
6HR MIN TEMP:  40; 6HR MAX TEMP:  52;

HUTCHINSON     CLEAR     37  18  46 NW17G28   30.22R WCI  27
6HR MIN TEMP:  35; 6HR MAX TEMP:  44;

MEDICINE LODGE   N/A     35  18  49 NW14G22   30.27R WCI  26
NEWTON         CLEAR     34  18  51 NW20G25   30.19R WCI  22
PARSONS        CLEAR     35  22  58 W7        30.13S
6HR MIN TEMP:  35; 6HR MAX TEMP:  49;

WICHITA INTL   CLEAR     36  20  52 NW14      30.20R WCI  27
6HR MIN TEMP:  36; 6HR MAX TEMP:  47;

WICHITA JABRA  CLEAR     37  19  48 NW21G29   30.19R WCI  26
6HR MIN TEMP:  36; 6HR MAX TEMP:  46;

WINFIELD       CLEAR     37  20  50 NW18      30.22R WCI  27
6HR MIN TEMP:  35; 6HR MAX TEMP:  48;

$$

KSZ007>012-019>026-033>040-048>060-102>105-080700-
NORTHEAST KANSAS

CITY           SKY/WX    TMP DP  RH WIND       PRES   REMARKS
CONCORDIA      CLEAR     34  18  52 NW15      30.16R WCI  24
6HR MIN TEMP:  34; 6HR MAX TEMP:  41;

EMPORIA        CLEAR     35  21  56 NW15      30.11R WCI  25
6HR MIN TEMP:  33; 6HR MAX TEMP:  47;

LAWRENCE       LGT RAIN  38  28  67 NW13      30.04F WCI  30
6HR MIN TEMP:  37; 6HR MAX TEMP:  46; 6HR PCP: TRACE;

MANHATTAN      CLEAR     38  19  46 NW17G26   30.14R WCI  28
6HR MIN TEMP:  37; 6HR MAX TEMP:  46;

OLATHE IND     FLURRIES  35  29  78 NW10      30.03F WCI  27
6HR MIN TEMP:  35; 6HR MAX TEMP:  46; 6HR PCP: TRACE;

OLATHE EXE     CLOUDY    36  27  69 NW17      30.01F WCI  26
6HR MIN TEMP:  36; 6HR MAX TEMP:  46; 6HR PCP: TRACE;

SALINA         CLEAR     36  19  50 NW16      30.20R WCI  26
6HR MIN TEMP:  36; 6HR MAX TEMP:  46;

TOPEKA BILLARD CLOUDY    40  22  48 NW24G37   30.06R WCI  29
6HR MIN TEMP:  40; 6HR MAX TEMP:  47; 6HR PCP: TRACE;

TOPEKA FORBES  LGT RAIN  40  24  53 NW31G44   30.05R WCI  28
6HR MIN TEMP:  40; 6HR MAX TEMP:  47; 6HR PCP: TRACE;

$$




USA.gov is the U.S. government's official web portal to all federal, state and local government web resources and services.